Location: Cedar Falls
(42.5280°N, 92.4450°W)
Time: 20:42:45
(UTC-05:00)

NOSS 3-1 (C) - Visible Passes

Search period start: 27 September 2016 00:00
Search period end: 07 October 2016 00:00
Orbit: 843 x 1366 km, 63.4° (Epoch: 27 September)

Date Brightness Start Highest point End Pass type
(mag) Time Alt. Az. Time Alt. Az. Time Alt. Az.
27 Sep 6.2 01:13:56 11° NE 01:13:56 11° NE 01:14:05 10° NE visible
27 Sep 5.5 03:01:20 22° N 03:01:20 22° N 03:04:45 10° NNE visible
27 Sep 5.8 04:49:58 10° NNW 04:52:57 13° N 04:56:04 10° NNE visible
28 Sep 5.7 02:17:26 19° NNE 02:17:26 19° NNE 02:19:35 10° NNE visible
28 Sep 5.7 04:04:49 13° NNW 04:06:45 14° NNW 04:10:20 10° NNE visible
28 Sep 5.9 05:56:59 10° NNW 06:00:58 15° NNE 06:05:10 10° NE visible
29 Sep 6.1 01:33:31 14° NNE 01:33:31 14° NNE 01:34:24 10° NNE visible
29 Sep 5.6 03:20:55 17° NNW 03:20:55 17° NNW 03:24:57 10° NNE visible
29 Sep 6.0 05:11:29 10° NNW 05:14:45 13° N 05:18:10 10° NE visible
30 Sep 5.8 02:37:00 18° N 02:37:00 18° N 02:39:43 10° NNE visible
30 Sep 5.9 04:25:34 10° NNW 04:28:30 13° N 04:31:34 10° NNE visible
30 Sep 5.9 06:17:12 10° NNW 06:22:31 21° NNE 06:28:13 10° ENE visible
01 Oct 6.0 01:53:06 15° NNE 01:53:06 15° NNE 01:54:33 10° NNE visible
01 Oct 5.9 03:40:29 12° NNW 03:42:15 13° N 03:45:33 10° NNE visible
01 Oct 6.0 05:32:01 10° NNW 05:36:28 17° NNE 05:41:11 10° ENE visible
02 Oct 6.3 01:09:11 11° NNE 01:09:11 11° NNE 01:09:23 10° NNE visible
02 Oct 5.9 02:56:35 15° N 02:56:35 15° N 03:00:00 10° NNE visible
02 Oct 6.0 04:46:40 10° NNW 04:50:18 14° NNE 04:54:06 10° NE visible
02 Oct 5.6 06:37:15 10° NNW 06:43:43 32° NE 06:50:48 10° E visible
03 Oct 6.0 02:12:41 15° N 02:12:41 15° N 02:14:42 10° NNE visible
03 Oct 6.0 04:01:00 10° NNW 04:04:03 13° N 04:07:14 10° NNE visible
03 Oct 5.9 05:52:08 10° NNW 05:57:54 24° NNE 06:04:07 10° E visible
04 Oct 6.2 01:28:47 12° NNE 01:28:47 12° NNE 01:29:31 10° NNE visible
04 Oct 6.0 03:16:11 12° NNW 03:17:48 13° N 03:20:54 10° NNE visible
04 Oct 6.0 05:06:59 10° NNW 05:11:55 19° NNE 05:17:11 10° ENE visible
05 Oct 6.0 02:32:17 14° N 02:32:17 14° N 02:35:07 10° NNE visible
05 Oct 6.1 04:21:45 10° NNW 04:25:48 16° NNE 04:30:06 10° NE visible
05 Oct 5.3 06:12:11 10° NNW 06:18:59 38° NE 06:26:26 10° ESE visible
06 Oct 6.2 01:48:26 13° N 01:48:26 13° N 01:49:43 10° NNE visible
06 Oct 6.1 03:36:17 10° NNW 03:39:36 14° N 03:43:05 10° NE visible
06 Oct 5.7 05:27:04 10° NNW 05:33:14 28° NE 05:39:56 10° E visible
